| time (UTC) | temp C | wind direction | speed KPH | gust KPH | rain 1hr cm | rain 24hr cm | rain mn cm | humidity % | barometer mb |
| 20260901141017 | 32 | 260 | 11.3 | 22.5 | 0.00 | 0.00 | 0.00 | 24 | 1015.1 |
| 20260901140506 | 31 | 214 | 4.8 | 20.9 | 0.00 | 0.00 | 0.00 | 25 | 1015.1 |
| 20260901140018 | 31 | 210 | 11.3 | 33.8 | 0.00 | 0.00 | 0.00 | 27 | 1015.3 |
| 20260901135517 | 31 | 184 | 6.4 | 12.9 | 0.00 | 0.00 | 0.00 | 28 | 1015.1 |
| 20260901135017 | 31 | 234 | 8.0 | 14.5 | 0.00 | 0.00 | 0.00 | 28 | 1015.2 |
| 20260901134506 | 31 | 234 | 8.0 | 16.1 | 0.00 | 0.00 | 0.00 | 28 | 1015.2 |
| 20260901134017 | 31 | 239 | 8.0 | 19.3 | 0.00 | 0.00 | 0.00 | 29 | 1015.4 |
| 20260901133518 | 31 | 240 | 3.2 | 11.3 | 0.00 | 0.00 | 0.00 | 30 | 1015.3 |
| 20260901133018 | 30 | 235 | 4.8 | 20.9 | 0.00 | 0.00 | 0.00 | 30 | 1015.4 |
| 20260901132517 | 31 | 280 | 16.1 | 22.5 | 0.00 | 0.00 | 0.00 | 30 | 1015.4 |
| 20260901132017 | 31 | 256 | 8.0 | 19.3 | 0.00 | 0.00 | 0.00 | 30 | 1015.4 |
| 20260901131517 | 31 | 203 | 11.3 | 24.1 | 0.00 | 0.00 | 0.00 | 29 | 1015.5 |
| 20260901131017 | 30 | 161 | 6.4 | 11.3 | 0.00 | 0.00 | 0.00 | 30 | 1015.5 |
| 20260901130517 | 30 | 153 | 9.7 | 19.3 | 0.00 | 0.00 | 0.00 | 32 | 1015.7 |
| 20260901130017 | 30 | 196 | 11.3 | 19.3 | 0.00 | 0.00 | 0.00 | 31 | 1015.8 |
| 20260901125517 | 30 | 229 | 9.7 | 19.3 | 0.00 | 0.00 | 0.00 | 31 | 1015.9 |
| 20260901125017 | 30 | 232 | 11.3 | 20.9 | 0.00 | 0.00 | 0.00 | 29 | 1016.0 |
| 20260901124517 | 30 | 319 | 3.2 | 8.0 | 0.00 | 0.00 | 0.00 | 32 | 1015.9 |
| 20260901124017 | 30 | 238 | 4.8 | 16.1 | 0.00 | 0.00 | 0.00 | 31 | 1015.9 |
| 20260901123517 | 30 | 227 | 11.3 | 19.3 | 0.00 | 0.00 | 0.00 | 32 | 1016.0 |
| 20260901123007 | 30 | 234 | 4.8 | 16.1 | 0.00 | 0.00 | 0.00 | 34 | 1016.0 |
| 20260901122507 | 30 | 270 | 4.8 | 11.3 | 0.00 | 0.00 | 0.00 | 35 | 1015.9 |
| 20260901122017 | 30 | 247 | 3.2 | 9.7 | 0.00 | 0.00 | 0.00 | 35 | 1016.0 |
| 20260901121518 | 29 | 189 | 8.0 | 16.1 | 0.00 | 0.00 | 0.00 | 35 | 1016.2 |
| 20260901121018 | 29 | 174 | 6.4 | 16.1 | 0.00 | 0.00 | 0.00 | 35 | 1016.1 |
| 20260901120017 | 28 | 198 | 6.4 | 16.1 | 0.00 | 0.00 | 0.00 | 36 | 1016.1 |
| 20260901115506 | 28 | 282 | 1.6 | 9.7 | 0.00 | 0.00 | 0.00 | 38 | 1016.3 |
| 20260901115017 | 28 | 188 | 4.8 | 19.3 | 0.00 | 0.00 | 0.00 | 38 | 1016.3 |
| 20260901114517 | 28 | 126 | 3.2 | 9.7 | 0.00 | 0.00 | 0.00 | 40 | 1016.3 |
| 20260901114017 | 28 | 289 | 6.4 | 19.3 | 0.00 | 0.00 | 0.00 | 39 | 1016.3 |
| 20260901113517 | 28 | 237 | 1.6 | 4.8 | 0.00 | 0.00 | 0.00 | 42 | 1016.5 |
| 20260901113017 | 28 | 167 | 1.6 | 11.3 | 0.00 | 0.00 | 0.00 | 42 | 1016.5 |
| 20260901112517 | 28 | 214 | 4.8 | 14.5 | 0.00 | 0.00 | 0.00 | 43 | 1016.6 |
| 20260901112006 | 28 | 142 | 1.6 | 11.3 | 0.00 | 0.00 | 0.00 | 42 | 1016.5 |
| 20260901111517 | 27 | 136 | 4.8 | 9.7 | 0.00 | 0.00 | 0.00 | 42 | 1016.7 |
| 20260901110506 | 27 | 130 | 4.8 | 14.5 | 0.00 | 0.00 | 0.00 | 45 | 1016.8 |
| 20260901105017 | 27 | 162 | 4.8 | 14.5 | 0.00 | 0.00 | 0.00 | 47 | 1016.9 |
| 20260901104517 | 27 | 122 | 8.0 | 14.5 | 0.00 | 0.00 | 0.00 | 46 | 1016.9 |
| 20260901103518 | 26 | 130 | 4.8 | 12.9 | 0.00 | 0.00 | 0.00 | 49 | 1017.1 |
| 20260901103006 | 26 | 119 | 8.0 | 14.5 | 0.00 | 0.00 | 0.00 | 49 | 1017.1 |
| 20260901102517 | 26 | 208 | 1.6 | 8.0 | 0.00 | 0.00 | 0.00 | 50 | 1017.1 |
| 20260901101517 | 26 | 86 | 8.0 | 16.1 | 0.00 | 0.00 | 0.00 | 50 | 1017.1 |
| 20260901101006 | 26 | 77 | 1.6 | 4.8 | 0.00 | 0.00 | 0.00 | 51 | 1017.1 |
| 20260901100518 | 25 | 181 | 4.8 | 11.3 | 0.00 | 0.00 | 0.00 | 51 | 1017.2 |
| 20260901100019 | 25 | 110 | 6.4 | 14.5 | 0.00 | 0.00 | 0.00 | 51 | 1017.3 |
| 20260901095519 | 25 | 85 | 0.0 | 4.8 | 0.00 | 0.00 | 0.00 | 52 | 1017.3 |
| 20260901095019 | 25 | 122 | 3.2 | 8.0 | 0.00 | 0.00 | 0.00 | 52 | 1017.4 |
| 20260901094519 | 25 | 174 | 4.8 | 9.7 | 0.00 | 0.00 | 0.00 | 52 | 1017.4 |
| 20260901094019 | 25 | 101 | 3.2 | 16.1 | 0.00 | 0.00 | 0.00 | 54 | 1017.3 |
| 20260901093508 | 25 | 94 | 1.6 | 14.5 | 0.00 | 0.00 | 0.00 | 55 | 1017.3 |
| 20260901093019 | 25 | 60 | 3.2 | 8.0 | 0.00 | 0.00 | 0.00 | 54 | 1017.3 |
| 20260901092519 | 24 | 164 | 1.6 | 12.9 | 0.00 | 0.00 | 0.00 | 56 | 1017.4 |
| 20260901092008 | 24 | 147 | 3.2 | 9.7 | 0.00 | 0.00 | 0.00 | 56 | 1017.4 |
| 20260901091519 | 24 | 144 | 3.2 | 4.8 | 0.00 | 0.00 | 0.00 | 56 | 1017.4 |
| 20260901091019 | 24 | 91 | 4.8 | 8.0 | 0.00 | 0.00 | 0.00 | 56 | 1017.5 |
| 20260901085519 | 23 | 102 | 3.2 | 9.7 | 0.00 | 0.00 | 0.00 | 57 | 1017.5 |
| 20260901085019 | 23 | 154 | 0.0 | 8.0 | 0.00 | 0.00 | 0.00 | 58 | 1017.5 |
| 20260901084519 | 23 | 83 | 3.2 | 4.8 | 0.00 | 0.00 | 0.00 | 58 | 1017.4 |
| 20260901084019 | 23 | 91 | 4.8 | 4.8 | 0.00 | 0.00 | 0.00 | 58 | 1017.4 |
| 20260901083519 | 23 | 97 | 4.8 | 11.3 | 0.00 | 0.00 | 0.00 | 58 | 1017.4 |
| 20260901083020 | 23 | 79 | 6.4 | 8.0 | 0.00 | 0.00 | 0.00 | 57 | 1017.3 |
| 20260901082519 | 23 | 61 | 1.6 | 8.0 | 0.00 | 0.00 | 0.00 | 58 | 1017.3 |
| 20260901082009 | 23 | 86 | 0.0 | 8.0 | 0.00 | 0.00 | 0.00 | 57 | 1017.3 |
| 20260901081519 | 22 | 97 | 0.0 | 4.8 | 0.00 | 0.00 | 0.00 | 57 | 1017.2 |
| 20260901081008 | 22 | 80 | 3.2 | 4.8 | 0.00 | 0.00 | 0.00 | 56 | 1017.2 |
| 20260901074519 | 22 | 84 | 3.2 | 4.8 | 0.00 | 0.00 | 0.00 | 56 | 1017.3 |
| 20260901074018 | 22 | 115 | 4.8 | 11.3 | 0.00 | 0.00 | 0.00 | 56 | 1017.3 |
| 20260901073519 | 22 | 94 | 6.4 | 11.3 | 0.00 | 0.00 | 0.00 | 55 | 1017.4 |
| 20260901073019 | 22 | 107 | 4.8 | 9.7 | 0.00 | 0.00 | 0.00 | 56 | 1017.4 |
| 20260901072019 | 21 | 108 | 8.0 | 11.3 | 0.00 | 0.00 | 0.00 | 56 | 1017.3 |
| 20260901071519 | 21 | 111 | 3.2 | 4.8 | 0.00 | 0.00 | 0.00 | 57 | 1017.3 |
| 20260901071007 | 21 | 106 | 3.2 | 4.8 | 0.00 | 0.00 | 0.00 | 58 | 1017.3 |
| 20260901070519 | 21 | 27 | 0.0 | 0.0 | 0.00 | 0.00 | 0.00 | 59 | 1017.3 |
| 20260901070019 | 20 | 27 | 0.0 | 0.0 | 0.00 | 0.00 | 0.00 | 58 | 1017.3 |
| 20260901065518 | 20 | 27 | 0.0 | 3.2 | 0.00 | 0.00 | 0.00 | 58 | 1017.3 |
| 20260901065018 | 20 | 27 | 1.6 | 4.8 | 0.00 | 0.00 | 0.00 | 59 | 1017.3 |
| 20260901064519 | 19 | 27 | 3.2 | 4.8 | 0.00 | 0.00 | 0.00 | 59 | 1017.2 |
| 20260901064018 | 18 | 27 | 3.2 | 4.8 | 0.00 | 0.00 | 0.00 | 59 | 1017.1 |
| 20260901063519 | 18 | 27 | 3.2 | 4.8 | 0.00 | 0.00 | 0.00 | 59 | 1017.1 |
| 20260901062508 | 18 | 27 | 0.0 | 3.2 | 0.00 | 0.00 | 0.00 | 59 | 1016.8 |
| 20260901062019 | 18 | 25 | 1.6 | 4.8 | 0.00 | 0.00 | 0.00 | 59 | 1016.9 |
| 20260901061508 | 18 | 13 | 3.2 | 4.8 | 0.00 | 0.00 | 0.00 | 59 | 1016.9 |
| 20260901061007 | 18 | 13 | 3.2 | 8.0 | 0.00 | 0.00 | 0.00 | 59 | 1016.9 |
| 20260901060508 | 18 | 5 | 4.8 | 8.0 | 0.00 | 0.00 | 0.00 | 59 | 1017.0 |
| 20260901055519 | 18 | 27 | 3.2 | 4.8 | 0.00 | 0.00 | 0.00 | 59 | 1016.8 |
| 20260901055019 | 18 | 355 | 3.2 | 4.8 | 0.00 | 0.00 | 0.00 | 59 | 1016.8 |
| 20260901054519 | 18 | 355 | 3.2 | 4.8 | 0.00 | 0.00 | 0.00 | 59 | 1016.7 |
| 20260901054019 | 18 | 355 | 3.2 | 4.8 | 0.00 | 0.00 | 0.00 | 59 | 1016.5 |
| 20260901053518 | 18 | 355 | 3.2 | 4.8 | 0.00 | 0.00 | 0.00 | 59 | 1016.5 |
| 20260901053019 | 18 | 355 | 3.2 | 4.8 | 0.00 | 0.00 | 0.00 | 59 | 1016.5 |
| 20260901052519 | 18 | 13 | 4.8 | 4.8 | 0.00 | 0.00 | 0.00 | 59 | 1016.4 |
| 20260901052018 | 18 | 16 | 3.2 | 4.8 | 0.00 | 0.00 | 0.00 | 59 | 1016.5 |
| 20260901051519 | 18 | 16 | 0.0 | 0.0 | 0.00 | 0.00 | 0.00 | 60 | 1016.5 |
| 20260901050508 | 18 | 16 | 3.2 | 4.8 | 0.00 | 0.00 | 0.00 | 60 | 1016.4 |
| 20260901045019 | 18 | 19 | 3.2 | 4.8 | 0.00 | 0.00 | 0.00 | 60 | 1016.4 |
| 20260901044508 | 18 | 19 | 1.6 | 4.8 | 0.00 | 0.00 | 0.00 | 60 | 1016.3 |
| 20260901043508 | 18 | 19 | 1.6 | 4.8 | 0.00 | 0.00 | 0.00 | 60 | 1016.3 |
| 20260901043018 | 18 | 19 | 4.8 | 4.8 | 0.00 | 0.00 | 0.00 | 61 | 1016.3 |
| 20260901042519 | 18 | 19 | 3.2 | 4.8 | 0.00 | 0.00 | 0.00 | 61 | 1016.1 |
| 20260901041508 | 18 | 25 | 3.2 | 4.8 | 0.00 | 0.00 | 0.00 | 60 | 1016.0 |
| 20260901041018 | 18 | 28 | 3.2 | 4.8 | 0.00 | 0.00 | 0.00 | 60 | 1016.0 |
| 20260901040019 | 18 | 19 | 4.8 | 8.0 | 0.00 | 0.00 | 0.00 | 61 | 1016.0 |
| 20260901035518 | 18 | 26 | 1.6 | 4.8 | 0.00 | 0.00 | 0.00 | 60 | 1016.0 |
| 20260901034519 | 19 | 31 | 0.0 | 0.0 | 0.00 | 0.00 | 0.00 | 61 | 1015.9 |
| 20260901033519 | 19 | 31 | 0.0 | 0.0 | 0.00 | 0.00 | 0.00 | 57 | 1015.9 |
| 20260901033008 | 19 | 43 | 0.0 | 0.0 | 0.00 | 0.00 | 0.00 | 57 | 1015.9 |
| 20260901031519 | 20 | 43 | 0.0 | 0.0 | 0.00 | 0.00 | 0.00 | 56 | 1015.9 |
| 20260901031018 | 20 | 34 | 0.0 | 0.0 | 0.00 | 0.00 | 0.00 | 55 | 1015.9 |
| 20260901025518 | 20 | 34 | 0.0 | 0.0 | 0.00 | 0.00 | 0.00 | 53 | 1015.9 |
| 20260901025018 | 20 | 34 | 0.0 | 4.8 | 0.00 | 0.00 | 0.00 | 53 | 1015.8 |
| 20260901024518 | 20 | 29 | 3.2 | 4.8 | 0.00 | 0.00 | 0.00 | 53 | 1015.9 |
| 20260901023508 | 20 | 19 | 4.8 | 4.8 | 0.00 | 0.00 | 0.00 | 52 | 1015.7 |
| 20260901023019 | 20 | 19 | 3.2 | 4.8 | 0.00 | 0.00 | 0.00 | 51 | 1015.8 |
| 20260901022508 | 20 | 31 | 4.8 | 4.8 | 0.00 | 0.00 | 0.00 | 52 | 1015.8 |
| 20260901022018 | 20 | 5 | 3.2 | 4.8 | 0.00 | 0.00 | 0.00 | 51 | 1015.8 |
| 20260901021508 | 20 | 19 | 0.0 | 4.8 | 0.00 | 0.00 | 0.00 | 49 | 1015.9 |
| 20260901020508 | 20 | 19 | 4.8 | 4.8 | 0.00 | 0.00 | 0.00 | 48 | 1015.9 |
| 20260901020018 | 20 | 40 | 0.0 | 0.0 | 0.00 | 0.00 | 0.00 | 47 | 1015.9 |
| 20260901015019 | 20 | 40 | 0.0 | 0.0 | 0.00 | 0.00 | 0.00 | 46 | 1015.8 |
| 20260901014518 | 21 | 40 | 0.0 | 0.0 | 0.00 | 0.00 | 0.00 | 45 | 1015.9 |
| 20260901014019 | 21 | 40 | 0.0 | 3.2 | 0.00 | 0.00 | 0.00 | 44 | 1015.9 |
| 20260901013519 | 21 | 40 | 1.6 | 4.8 | 0.00 | 0.00 | 0.00 | 44 | 1015.9 |
| 20260901013019 | 21 | 40 | 3.2 | 4.8 | 0.00 | 0.00 | 0.00 | 44 | 1015.9 |
| 20260901012519 | 21 | 41 | 3.2 | 4.8 | 0.00 | 0.00 | 0.00 | 44 | 1015.9 |
| 20260901012019 | 21 | 46 | 3.2 | 4.8 | 0.00 | 0.00 | 0.00 | 43 | 1016.0 |
| 20260901011018 | 21 | 52 | 3.2 | 4.8 | 0.00 | 0.00 | 0.00 | 43 | 1015.9 |
| 20260901010519 | 21 | 30 | 3.2 | 8.0 | 0.00 | 0.00 | 0.00 | 43 | 1015.8 |
| 20260901005518 | 21 | 40 | 3.2 | 9.7 | 0.00 | 0.00 | 0.00 | 43 | 1015.8 |
| 20260901005019 | 21 | 44 | 3.2 | 4.8 | 0.00 | 0.00 | 0.00 | 43 | 1015.9 |
| 20260901004018 | 21 | 20 | 3.2 | 8.0 | 0.00 | 0.00 | 0.00 | 43 | 1016.0 |
| 20260901003018 | 21 | 32 | 4.8 | 11.3 | 0.00 | 0.00 | 0.00 | 42 | 1016.0 |
| 20260901002518 | 21 | 15 | 4.8 | 8.0 | 0.00 | 0.00 | 0.00 | 42 | 1016.0 |
| 20260901002018 | 21 | 11 | 4.8 | 4.8 | 0.00 | 0.00 | 0.00 | 41 | 1016.1 |
| 20260901001512 | 21 | 6 | 4.8 | 8.0 | 0.00 | 0.00 | 0.00 | 40 | 1016.1 |
| 20260901000507 | 20 | 49 | 3.2 | 8.0 | 0.00 | 0.00 | 0.00 | 40 | 1016.3 |
| 20260901000007 | 20 | 70 | 1.6 | 8.0 | 0.00 | 0.00 | 0.00 | 40 | 1016.2 |
| 20260831235509 | 20 | 26 | 3.2 | 8.0 | 0.00 | 0.00 | 0.00 | 40 | 1016.0 |
| 20260831235019 | 20 | 18 | 4.8 | 9.7 | 0.00 | 0.00 | 0.00 | 41 | 1016.0 |
| 20260831234518 | 20 | 354 | 8.0 | 12.9 | 0.00 | 0.00 | 0.00 | 40 | 1015.9 |
| 20260831234019 | 20 | 354 | 8.0 | 9.7 | 0.00 | 0.00 | 0.00 | 40 | 1015.9 |
| 20260831233519 | 20 | 0 | 4.8 | 9.7 | 0.00 | 0.00 | 0.00 | 39 | 1016.0 |
| 20260831232518 | 21 | 32 | 4.8 | 14.5 | 0.00 | 0.00 | 0.00 | 39 | 1015.9 |
| 20260831232018 | 21 | 91 | 11.3 | 16.1 | 0.00 | 0.00 | 0.00 | 37 | 1015.9 |
| 20260831231519 | 22 | 124 | 6.4 | 16.1 | 0.00 | 0.00 | 0.00 | 37 | 1015.8 |
| 20260831231018 | 21 | 21 | 4.8 | 4.8 | 0.00 | 0.00 | 0.00 | 37 | 1015.6 |
| 20260831230518 | 21 | 355 | 4.8 | 4.8 | 0.00 | 0.00 | 0.00 | 37 | 1015.6 |
| 20260831230019 | 21 | 11 | 4.8 | 4.8 | 0.00 | 0.00 | 0.00 | 36 | 1015.6 |
| 20260831225518 | 22 | 11 | 3.2 | 4.8 | 0.00 | 0.00 | 0.00 | 35 | 1015.6 |
| 20260831225018 | 22 | 11 | 4.8 | 4.8 | 0.00 | 0.00 | 0.00 | 36 | 1015.5 |
| 20260831224519 | 22 | 11 | 4.8 | 8.0 | 0.00 | 0.00 | 0.00 | 36 | 1015.6 |
| 20260831224007 | 22 | 10 | 4.8 | 8.0 | 0.00 | 0.00 | 0.00 | 36 | 1015.6 |
| 20260831222518 | 22 | 352 | 0.0 | 0.0 | 0.00 | 0.00 | 0.00 | 34 | 1015.7 |
| 20260831222007 | 23 | 342 | 0.0 | 0.0 | 0.00 | 0.00 | 0.00 | 34 | 1015.6 |
| 20260831221518 | 23 | 342 | 0.0 | 0.0 | 0.00 | 0.00 | 0.00 | 34 | 1015.5 |
| 20260831221022 | 23 | 342 | 0.0 | 0.0 | 0.00 | 0.00 | 0.00 | 33 | 1015.5 |
| 20260831220518 | 24 | 342 | 0.0 | 0.0 | 0.00 | 0.00 | 0.00 | 33 | 1015.5 |
| 20260831220019 | 25 | 342 | 0.0 | 0.0 | 0.00 | 0.00 | 0.00 | 32 | 1015.6 |
| 20260831215007 | 25 | 342 | 0.0 | 0.0 | 0.00 | 0.00 | 0.00 | 31 | 1015.5 |
| 20260831214019 | 24 | 342 | 0.0 | 0.0 | 0.00 | 0.00 | 0.00 | 31 | 1015.6 |
| 20260831213518 | 24 | 342 | 0.0 | 0.0 | 0.00 | 0.00 | 0.00 | 32 | 1015.5 |
| 20260831213019 | 24 | 342 | 0.0 | 0.0 | 0.00 | 0.00 | 0.00 | 32 | 1015.5 |
| 20260831211519 | 23 | 342 | 0.0 | 0.0 | 0.00 | 0.00 | 0.00 | 33 | 1015.3 |
| 20260831211007 | 23 | 342 | 0.0 | 0.0 | 0.00 | 0.00 | 0.00 | 33 | 1015.3 |
| 20260831210519 | 24 | 342 | 0.0 | 0.0 | 0.00 | 0.00 | 0.00 | 33 | 1015.2 |
| 20260831210007 | 25 | 342 | 0.0 | 0.0 | 0.00 | 0.00 | 0.00 | 32 | 1015.2 |
| 20260831205518 | 25 | 315 | 0.0 | 0.0 | 0.00 | 0.00 | 0.00 | 31 | 1015.2 |
| 20260831205007 | 25 | 315 | 0.0 | 0.0 | 0.00 | 0.00 | 0.00 | 32 | 1015.1 |
| 20260831204519 | 25 | 315 | 0.0 | 0.0 | 0.00 | 0.00 | 0.00 | 31 | 1015.0 |
| 20260831204018 | 25 | 315 | 0.0 | 0.0 | 0.00 | 0.00 | 0.00 | 30 | 1015.0 |
| 20260831203518 | 25 | 315 | 0.0 | 0.0 | 0.00 | 0.00 | 0.00 | 30 | 1014.8 |
| 20260831202507 | 25 | 315 | 0.0 | 0.0 | 0.00 | 0.00 | 0.00 | 30 | 1014.7 |
| 20260831202018 | 26 | 315 | 0.0 | 0.0 | 0.00 | 0.00 | 0.00 | 30 | 1014.8 |
| 20260831200518 | 26 | 315 | 0.0 | 0.0 | 0.00 | 0.00 | 0.00 | 29 | 1014.8 |
| 20260831200018 | 26 | 315 | 0.0 | 0.0 | 0.00 | 0.00 | 0.00 | 29 | 1014.7 |
| 20260831195018 | 27 | 315 | 1.6 | 3.2 | 0.00 | 0.00 | 0.00 | 28 | 1014.4 |
| 20260831194507 | 27 | 315 | 3.2 | 4.8 | 0.00 | 0.00 | 0.00 | 28 | 1014.4 |
| 20260831194018 | 27 | 315 | 8.0 | 9.7 | 0.00 | 0.00 | 0.00 | 28 | 1014.4 |
| 20260831193518 | 27 | 313 | 9.7 | 12.9 | 0.00 | 0.00 | 0.00 | 27 | 1014.4 |
| 20260831193018 | 27 | 313 | 9.7 | 12.9 | 0.00 | 0.00 | 0.00 | 27 | 1014.3 |
| 20260831192017 | 27 | 313 | 8.0 | 11.3 | 0.00 | 0.00 | 0.00 | 27 | 1014.2 |
| 20260831191518 | 27 | 311 | 6.4 | 8.0 | 0.00 | 0.00 | 0.00 | 26 | 1014.3 |
| 20260831191018 | 28 | 309 | 8.0 | 11.3 | 0.00 | 0.00 | 0.00 | 26 | 1014.2 |
| 20260831190507 | 28 | 311 | 6.4 | 11.3 | 0.00 | 0.00 | 0.00 | 26 | 1014.2 |
| 20260831190019 | 28 | 309 | 4.8 | 8.0 | 0.00 | 0.00 | 0.00 | 26 | 1014.1 |
| 20260831185506 | 29 | 308 | 4.8 | 8.0 | 0.00 | 0.00 | 0.00 | 25 | 1014.1 |
| 20260831185017 | 30 | 302 | 3.2 | 4.8 | 0.00 | 0.00 | 0.00 | 24 | 1014.1 |
| 20260831184518 | 30 | 290 | 4.8 | 8.0 | 0.00 | 0.00 | 0.00 | 24 | 1014.1 |
| 20260831183518 | 31 | 281 | 6.4 | 11.3 | 0.00 | 0.00 | 0.00 | 23 | 1014.2 |
| 20260831183018 | 31 | 283 | 8.0 | 12.9 | 0.00 | 0.00 | 0.00 | 23 | 1014.2 |
| 20260831182518 | 31 | 285 | 6.4 | 11.3 | 0.00 | 0.00 | 0.00 | 23 | 1014.2 |
| 20260831181524 | 31 | 275 | 0.0 | 4.8 | 0.00 | 0.00 | 0.00 | 22 | 1014.2 |
| 20260831181018 | 31 | 276 | 1.6 | 9.7 | 0.00 | 0.00 | 0.00 | 22 | 1014.2 |
| 20260831180522 | 31 | 271 | 4.8 | 9.7 | 0.00 | 0.00 | 0.00 | 22 | 1014.2 |
| 20260831180007 | 31 | 289 | 4.8 | 11.3 | 0.00 | 0.00 | 0.00 | 22 | 1014.2 |
| 20260831175518 | 31 | 283 | 11.3 | 16.1 | 0.00 | 0.00 | 0.00 | 22 | 1014.3 |
| 20260831175018 | 31 | 284 | 3.2 | 12.9 | 0.00 | 0.00 | 0.00 | 22 | 1014.3 |
| 20260831174007 | 32 | 286 | 11.3 | 19.3 | 0.00 | 0.00 | 0.00 | 22 | 1014.3 |
| 20260831173007 | 32 | 229 | 8.0 | 12.9 | 0.00 | 0.00 | 0.00 | 22 | 1014.2 |
| 20260831172018 | 32 | 235 | 4.8 | 12.9 | 0.00 | 0.00 | 0.00 | 22 | 1014.3 |
| 20260831171518 | 32 | 206 | 8.0 | 27.4 | 0.00 | 0.00 | 0.00 | 21 | 1014.2 |
| 20260831170518 | 32 | 291 | 6.4 | 14.5 | 0.00 | 0.00 | 0.00 | 22 | 1014.3 |
| 20260831170018 | 32 | 242 | 6.4 | 12.9 | 0.00 | 0.00 | 0.00 | 22 | 1014.3 |
| 20260831165506 | 32 | 231 | 9.7 | 16.1 | 0.00 | 0.00 | 0.00 | 22 | 1014.4 |
| 20260831165017 | 32 | 259 | 8.0 | 14.5 | 0.00 | 0.00 | 0.00 | 22 | 1014.4 |
| 20260831164518 | 32 | 265 | 11.3 | 20.9 | 0.00 | 0.00 | 0.00 | 22 | 1014.4 |
| 20260831164017 | 32 | 189 | 6.4 | 16.1 | 0.00 | 0.00 | 0.00 | 23 | 1014.4 |
| 20260831163518 | 32 | 187 | 9.7 | 14.5 | 0.00 | 0.00 | 0.00 | 22 | 1014.4 |
| 20260831162507 | 32 | 292 | 8.0 | 19.3 | 0.00 | 0.00 | 0.00 | 22 | 1014.4 |
| 20260831162006 | 32 | 254 | 9.7 | 19.3 | 0.00 | 0.00 | 0.00 | 22 | 1014.3 |
| 20260831161518 | 32 | 235 | 9.7 | 24.1 | 0.00 | 0.00 | 0.00 | 22 | 1014.3 |
| 20260831160518 | 31 | 214 | 6.4 | 14.5 | 0.00 | 0.00 | 0.00 | 24 | 1014.3 |
| 20260831160018 | 31 | 204 | 8.0 | 12.9 | 0.00 | 0.00 | 0.00 | 24 | 1014.5 |
| 20260831155518 | 31 | 194 | 8.0 | 16.1 | 0.00 | 0.00 | 0.00 | 24 | 1014.6 |
| 20260831155006 | 31 | 187 | 8.0 | 19.3 | 0.00 | 0.00 | 0.00 | 24 | 1014.8 |
| 20260831154518 | 31 | 207 | 3.2 | 11.3 | 0.00 | 0.00 | 0.00 | 23 | 1014.8 |
| 20260831154007 | 32 | 239 | 9.7 | 19.3 | 0.00 | 0.00 | 0.00 | 22 | 1014.8 |
| 20260831153507 | 32 | 230 | 6.4 | 19.3 | 0.00 | 0.00 | 0.00 | 23 | 1014.8 |
| 20260831153018 | 31 | 249 | 11.3 | 20.9 | 0.00 | 0.00 | 0.00 | 23 | 1014.9 |
| 20260831152517 | 31 | 187 | 8.0 | 19.3 | 0.00 | 0.00 | 0.00 | 23 | 1014.8 |
| 20260831152017 | 31 | 248 | 6.4 | 16.1 | 0.00 | 0.00 | 0.00 | 24 | 1015.0 |
| 20260831151506 | 31 | 215 | 9.7 | 19.3 | 0.00 | 0.00 | 0.00 | 23 | 1015.0 |
| 20260831151018 | 32 | 216 | 8.0 | 19.3 | 0.00 | 0.00 | 0.00 | 24 | 1015.0 |
| 20260831150518 | 31 | 249 | 6.4 | 19.3 | 0.00 | 0.00 | 0.00 | 24 | 1015.0 |
| 20260831150017 | 31 | 197 | 4.8 | 16.1 | 0.00 | 0.00 | 0.00 | 23 | 1014.9 |
| 20260831145506 | 31 | 217 | 4.8 | 19.3 | 0.00 | 0.00 | 0.00 | 24 | 1015.1 |
| 20260831145006 | 31 | 267 | 4.8 | 19.3 | 0.00 | 0.00 | 0.00 | 24 | 1015.1 |
| 20260831144506 | 31 | 198 | 8.0 | 19.3 | 0.00 | 0.00 | 0.00 | 24 | 1015.1 |
| 20260831144006 | 31 | 217 | 6.4 | 19.3 | 0.00 | 0.00 | 0.00 | 24 | 1015.2 |
| 20260831142506 | 31 | 259 | 1.6 | 11.3 | 0.00 | 0.00 | 0.00 | 25 | 1015.2 |
| 20260831141517 | 31 | 243 | 9.7 | 14.5 | 0.00 | 0.00 | 0.00 | 24 | 1015.4 |